SITRO-AIS 25

Last updated on Thu Nov 21 2024 00:03:40 GMT+0000 (Coordinated Universal Time)

1 59066U 24039R 24325.48550449 .00006804 00000+0 61117-3 0 9995 2 59066 95.3877 203.3384 0163913 163.4958 197.1691 14.86069190 39290
UTC large
Height (km)
Speed (km/s)
/
Latitude / Longitude
Inclination (degrees)
Orbital Period (minutes)
Azimuth
Elevation
Range (km)
Doppler Factor

Next 0 passes for location: London (51.5072 / 0.1276)

Sorry there are no passes over London.